03.05.2024;03:00;50
03.05.2024;02:00;43
03.05.2024;01:00;40
03.05.2024;00:00;42
02.05.2024;23:00;42
02.05.2024;22:00;47
02.05.2024;21:00;66
02.05.2024;20:00;55
02.05.2024;19:00;52
02.05.2024;18:00;64
02.05.2024;17:00;99
02.05.2024;16:00;105
02.05.2024;15:00;100
02.05.2024;14:00;98
02.05.2024;13:00;95
02.05.2024;12:00;88
02.05.2024;11:00;82
02.05.2024;10:00;68
02.05.2024;09:00;52
02.05.2024;08:00;39
02.05.2024;07:00;38
02.05.2024;06:00;58
02.05.2024;05:00;56
02.05.2024;04:00;60
02.05.2024;03:00;59
02.05.2024;02:00;66
02.05.2024;01:00;71
02.05.2024;00:00;73
01.05.2024;23:00;81
01.05.2024;22:00;87
01.05.2024;21:00;95
01.05.2024;20:00;101
01.05.2024;19:00;102
01.05.2024;18:00;109
01.05.2024;17:00;112
01.05.2024;16:00;111
01.05.2024;15:00;109
01.05.2024;14:00;101
01.05.2024;13:00;99
01.05.2024;12:00;94
01.05.2024;11:00;87
01.05.2024;10:00;77
01.05.2024;09:00;58
01.05.2024;08:00;30
01.05.2024;07:00;14
01.05.2024;06:00;24
01.05.2024;05:00;25
01.05.2024;04:00;27
